Zurück zum Katalog

COSMOS 374

AktivMilitärUNKNOWN
NORAD 4594·PAYLOAD·🇷🇺 Russia

Gestartet Oct 23, 1970 von Baikonur Cosmodrome

Loading…

Nächste Überflüge (nächste 24 Stunden)

TLE

AktuellSource: Space-Track

Epoche: Sep 14, 2026, 10:12 UTC

1 04594U 70089A   26257.42526064  .00000191  00000-0  98718-4 0  9995
2 04594  62.9280 264.3999 0982025  67.4189 302.7652 12.96923805680480

Verfolge COSMOS 374 in Echtzeit mit AllMySat

Download on the App Store